Theta_e
306 309 311 313 315 315 315 316 317 316 316 314 313 314 316 318 320 322 327 328 333 338 340 341 341 343 340 340 341 341 341 340 341 334 336 332 334 334 334 338 341 343 345
305 308 309 311 313 315 316 317 318 319 319 319 320 320 320 321 322 322 323 326 327 329 331 334 338 340 340 341 341 340 338 339 338 335 329 328 334 335 337 339 341 342 344
303 306 308 311 314 315 316 317 318 319 318 319 319 318 317 317 317 318 321 323 325 327 330 331 334 338 340 338 340 340 338 336 335 336 334 325 323 329 337 339 341 343 343
302 304 308 308 312 314 313 313 313 312 313 314 314 314 314 313 315 317 320 320 323 324 327 328 330 334 338 337 337 340 339 337 334 332 333 334 329 324 323 332 334 337 339
301 302 303 304 306 307 307 308 307 307 308 309 310 310 309 312 314 314 313 314 316 320 324 324 329 330 332 336 337 338 337 336 335 335 332 332 332 332 326 322 328 329 331
301 302 303 304 304 304 305 305 306 306 307 307 307 307 306 307 307 308 309 310 313 315 318 321 323 326 328 329 332 337 337 335 333 335 333 331 329 329 328 325 327 325 324
300 301 301 302 303 303 304 306 305 306 306 306 306 306 306 306 306 306 308 308 309 311 312 316 320 323 326 328 331 333 332 332 332 331 330 332 332 333 332 329 323 320 319
298 300 301 301 301 304 304 305 305 305 305 306 305 305 305 304 304 305 305 306 307 309 313 316 319 322 325 325 325 325 330 333 331 332 334 335 335 335 334 331 328 321 317
299 300 300 299 300 300 302 303 304 303 304 304 304 303 304 304 303 304 305 305 307 309 311 314 316 320 324 325 326 325 327 330 333 334 335 335 335 335 334 333 330 325 318
300 300 299 299 300 300 300 303 303 302 302 303 302 303 302 304 304 304 305 306 306 308 309 311 314 317 321 323 326 328 330 330 331 332 332 332 333 335 335 332 331 329 325
298 297 298 299 299 299 299 301 301 302 302 302 302 302 302 303 303 304 305 305 306 307 308 309 312 315 319 323 324 326 328 326 328 326 326 326 322 328 330 331 330 328 327
295 296 297 298 298 298 299 299 301 301 302 302 302 302 302 302 302 303 304 305 305 307 308 309 312 316 321 322 324 322 321 320 318 317 316 311 312 309 310 311 310 313 318
297 297 297 297 298 299 299 299 300 300 301 302 301 301 301 301 301 302 303 305 306 307 308 309 310 318 321 323 319 315 311 310 309 309 308 307 307 305 305 306 304 304 304
297 297 297 297 297 298 299 299 300 301 301 301 300 299 299 300 301 302 303 304 306 307 308 309 313 319 320 317 312 309 307 306 306 306 306 306 305 304 304 304 302 300 298
298 300 298 297 297 298 298 299 300 301 301 300 301 299 301 301 301 302 303 305 307 306 308 309 315 316 316 313 308 307 306 306 306 307 307 308 308 308 305 302 301 300 298
298 299 299 298 298 297 297 299 299 299 300 301 300 301 301 300 301 302 302 305 304 306 307 312 313 310 310 304 306 307 305 304 303 302 303 305 306 305 304 303 302 298 295
298 298 297 298 298 299 298 297 298 301 300 299 300 299 299 299 300 302 303 302 302 305 310 308 307 306 306 302 303 304 303 302 301 301 301 301 302 302 300 300 299 300 299
298 299 300 300 300 298 299 300 300 299 298 297 297 299 299 299 302 302 300 301 304 307 306 305 304 303 303 301 301 302 302 302 301 300 299 299 298 297 297 295 295 295 295
298 298 298 298 299 297 297 296 294 294 294 295 297 297 300 299 299 298 299 303 306 303 303 302 302 301 299 299 300 302 301 299 298 298 298 297 297 295 295 296 294 294 295
296 296 296 295 293 293 294 293 293 293 292 293 295 297 297 299 299 301 302 304 302 300 301 300 301 300 300 301 301 300 299 295 295 297 297 297 295 294 294 295 294 292 293
294 293 292 291 291 292 293 291 292 291 293 295 296 297 298 298 300 301 303 300 299 299 298 297 298 298 299 299 297 297 296 295 295 295 295 295 294 293 293 294 295 293 294
291 291 289 290 291 292 292 291 291 293 295 295 295 296 297 299 301 300 299 298 297 296 295 295 295 296 297 297 295 295 296 298 295 293 293 293 292 292 292 293 291 292 295
289 290 289 289 291 292 292 290 292 294 294 294 295 295 297 299 300 299 296 296 296 295 295 294 293 293 294 295 295 294 294 295 293 294 294 293 292 292 293 292 292 293 295
288 289 289 288 289 294 294 293 294 294 294 294 295 296 296 298 299 297 297 296 295 294 293 293 292 293 293 294 295 295 294 295 295 295 295 294 293 293 293 293 293 294 294
288 290 288 288 292 296 295 295 295 295 294 295 296 295 293 292 291 292 293 294 294 295 294 294 293 291 291 292 293 293 293 294 293 295 294 292 292 291 291 291 292 292 293
290 289 288 290 292 294 295 296 297 297 295 293 293 293 293 292 291 290 289 291 291 291 291 292 293 292 292 291 291 291 291 291 292 293 290 289 289 289 289 290 290 290 290
Wind_Speed
7 7 8 8 7 7 8 6 8 6 4 4 5 4 3 2 3 2 2 2 3 4 4 4 6 7 8 10 9 8 9 8 5 2 6 7 10 10 8 8 8 9 10
8 9 9 11 10 8 8 8 8 6 4 3 3 3 3 2 2 2 4 4 3 3 4 5 6 8 7 10 11 10 9 8 6 5 2 5 4 6 9 8 9 11 8
7 8 9 9 8 10 8 8 8 8 7 6 4 3 2 2 3 4 3 4 6 5 5 6 6 7 8 9 10 10 12 9 4 9 5 3 4 3 1 7 6 8 7
7 6 7 8 8 6 6 7 8 8 7 7 6 7 3 2 1 3 3 6 8 8 8 7 7 7 6 8 11 8 10 9 9 3 8 5 4 3 3 1 3 5 6
6 7 7 7 6 7 7 7 8 8 8 9 8 5 4 2 3 3 6 5 6 7 9 10 9 9 5 7 8 9 9 6 7 6 3 7 7 8 10 9 5 3 1
5 5 4 5 5 5 5 5 6 5 5 5 6 7 5 4 4 5 4 4 4 6 8 9 9 8 8 7 7 9 10 11 9 7 7 8 6 7 9 10 10 6 2
6 5 4 3 4 4 4 3 4 3 5 6 5 5 2 1 3 4 4 6 5 5 9 9 10 9 8 9 7 7 8 9 9 11 10 9 11 10 8 9 4 3 2
4 4 4 2 1 1 2 2 1 1 1 1 2 3 3 2 3 4 5 5 5 7 10 10 10 12 10 8 7 6 7 10 11 15 12 9 10 9 10 10 7 5 5
5 6 4 1 3 5 4 3 3 4 4 3 3 4 4 4 4 7 5 6 7 8 10 10 11 12 10 9 8 7 8 9 11 11 12 10 10 11 11 10 10 10 8
5 5 1 2 3 4 4 3 4 5 5 5 3 3 4 4 5 5 8 9 8 10 11 12 11 12 11 10 8 8 9 8 8 7 8 8 6 8 9 10 9 10 9
7 5 4 5 5 5 5 5 5 6 6 5 4 5 5 5 6 7 9 10 9 10 11 12 12 13 12 8 7 9 11 8 7 4 5 6 6 6 6 6 6 7 7
6 4 5 6 6 5 5 6 6 5 6 6 5 6 6 6 7 9 10 10 11 11 12 12 12 13 10 6 7 9 6 3 3 4 5 5 4 5 5 4 4 3 3
6 7 6 6 6 6 6 6 6 7 7 6 6 5 7 8 10 10 11 10 10 11 12 12 12 10 7 5 2 2 4 5 6 6 6 5 5 5 4 5 5 5 6
7 7 7 7 7 7 7 6 7 7 9 6 5 5 6 8 9 11 11 10 10 11 12 11 11 8 7 1 4 5 6 7 8 8 8 8 8 7 8 7 7 6 8
11 10 9 8 9 8 7 6 8 9 9 7 7 6 8 8 8 11 10 10 9 11 11 12 8 2 2 3 7 7 7 9 10 10 10 10 14 18 14 7 8 9 9
14 13 11 9 9 7 7 8 10 10 10 9 8 8 12 14 9 10 10 8 9 10 11 9 3 0 1 10 12 11 10 10 12 11 11 12 18 21 24 24 23 15 11
16 13 10 10 11 8 9 11 12 11 6 8 11 13 14 11 12 8 6 7 9 9 6 3 3 3 5 13 16 17 9 10 10 11 10 11 9 13 13 20 22 21 19
12 15 14 13 12 11 10 9 6 8 10 13 16 15 11 12 8 5 5 7 6 6 2 3 4 4 5 14 17 18 11 11 11 11 11 12 12 12 14 13 13 14 11
13 15 14 14 11 11 12 12 13 12 12 12 12 13 9 4 7 8 8 6 4 3 4 4 4 7 7 9 12 15 12 12 13 11 11 12 13 10 12 13 15 13 11
15 14 13 17 16 16 12 12 12 10 11 12 11 8 7 7 5 5 4 1 5 5 5 7 6 11 9 10 8 10 9 14 11 11 11 15 10 12 14 13 10 10 5
15 18 17 15 17 14 13 13 12 11 10 9 9 8 6 4 5 3 1 5 7 8 8 9 8 10 10 11 12 11 9 9 11 10 8 6 12 16 14 11 7 5 5
18 18 16 15 15 15 14 14 13 10 9 9 9 6 4 4 1 2 5 7 9 9 9 10 10 9 11 16 19 20 16 14 11 9 6 7 17 19 14 8 11 10 9
16 15 14 16 16 16 14 14 10 8 7 7 5 5 4 2 3 6 8 7 8 8 7 8 9 9 9 11 21 20 19 18 13 10 14 18 17 19 13 12 12 9 6
14 14 15 14 15 10 9 5 5 5 5 5 3 3 4 3 8 7 6 6 6 7 7 10 11 9 9 9 9 10 11 17 13 13 12 15 15 15 9 9 9 7 6
13 11 11 11 12 7 6 5 5 4 3 2 5 9 10 14 13 12 8 9 8 7 8 9 10 9 9 7 10 10 9 8 7 9 8 8 8 7 7 8 8 7 6
11 10 11 10 11 11 10 7 5 6 9 10 9 9 10 11 11 12 14 25 24 24 21 18 15 10 14 19 18 18 16 15 13 9 8 7 7 7 7 8 8 8 8
Wind_Direction
325 8 25 40 72 62 81 71 102 100 97 72 95 84 95 45 23 19 9 359 318 300 278 253 267 264 243 242 236 241 241 241 230 259 257 256 244 239 230 230 224 219 217
29 26 28 44 43 60 65 73 78 77 57 85 112 117 141 182 176 192 207 200 226 270 272 268 265 259 258 258 255 241 247 248 198 233 243 277 268 235 233 220 216 219 208
45 27 41 46 48 50 45 53 50 52 43 35 34 43 62 38 15 1 347 349 344 332 317 298 279 268 263 265 255 241 230 242 213 210 219 254 246 325 225 240 240 229 205
49 44 44 49 52 53 63 65 63 55 46 40 59 56 66 37 334 298 325 327 331 320 311 304 294 282 274 275 271 253 228 225 237 203 232 237 198 188 276 322 342 288 253
82 73 69 70 62 54 57 65 65 55 43 52 66 76 55 23 311 339 339 323 308 307 304 305 305 301 284 267 272 265 247 226 247 232 196 230 238 236 239 254 246 232 274
112 118 115 102 89 62 62 62 72 62 60 71 68 71 61 10 0 340 335 322 304 304 301 297 295 292 287 265 251 255 260 258 245 240 223 225 227 225 228 237 238 230 150
162 167 138 100 77 57 38 52 49 47 28 40 44 49 70 30 323 300 290 300 302 302 299 303 298 291 286 287 268 242 227 240 236 229 231 233 234 234 236 230 213 177 143
216 207 181 163 154 109 154 184 196 280 15 47 19 359 9 359 297 269 276 271 274 280 284 286 285 284 279 279 275 264 253 238 240 235 228 231 235 236 227 222 216 219 202
222 232 198 70 337 331 317 258 307 311 312 314 315 311 324 338 310 300 283 279 277 287 286 288 289 284 278 272 270 264 254 239 234 238 235 227 230 225 225 222 216 216 216
277 269 224 317 328 302 284 251 269 277 273 276 270 274 272 276 275 280 289 289 279 286 295 290 288 286 271 268 266 269 268 251 245 241 241 250 249 242 229 224 229 221 220
266 219 237 283 292 301 289 279 275 273 277 273 271 285 297 297 294 290 286 282 284 285 291 287 286 282 274 265 271 275 281 267 283 304 299 303 337 281 279 251 240 228 218
213 230 264 286 283 282 262 263 267 272 277 282 289 290 294 296 294 293 287 284 287 290 288 282 283 277 275 287 285 299 315 336 41 44 57 30 16 17 5 10 12 355 300
245 256 271 272 276 283 279 276 274 270 268 266 271 280 286 290 291 284 286 284 287 289 289 281 284 283 288 296 345 52 76 70 66 71 72 57 50 41 33 35 44 29 21
270 272 275 271 262 251 252 258 266 266 267 259 252 265 272 279 280 284 282 282 285 286 288 285 284 277 287 251 98 104 96 85 72 66 67 61 56 50 47 54 58 67 74
281 275 265 265 264 267 268 269 268 272 255 250 240 252 275 275 275 281 280 281 283 290 290 289 276 297 285 136 122 109 97 94 83 72 75 74 76 72 70 64 56 68 74
277 278 266 269 272 266 260 270 275 256 252 237 237 277 290 288 275 270 283 277 292 298 297 281 92 56 116 121 117 113 101 96 90 82 72 74 77 75 75 77 77 79 86
292 290 281 281 282 261 270 270 267 262 238 267 279 288 278 272 274 259 274 288 296 300 287 53 90 90 118 114 112 109 102 101 97 97 94 86 78 77 78 73 72 70 80
300 300 295 291 282 276 271 276 292 289 285 277 275 266 257 257 250 263 280 279 288 286 95 88 88 104 96 111 110 107 103 99 94 91 94 96 88 85 87 80 70 67 69
303 301 297 294 296 291 289 286 280 270 261 261 270 263 254 257 266 272 265 272 270 86 89 91 101 103 84 90 116 111 108 99 91 85 83 91 95 86 104 87 82 74 71
302 306 308 302 296 293 289 273 271 270 267 272 270 268 258 248 254 242 274 301 106 104 97 86 78 95 89 65 86 100 111 104 98 90 89 75 75 86 77 89 86 84 48
313 304 302 293 289 282 275 269 267 260 260 260 265 257 230 248 247 247 291 131 116 106 96 87 79 76 78 68 59 74 97 100 101 92 78 63 82 78 72 78 85 85 105
311 308 297 293 289 282 271 262 254 252 250 253 251 242 245 241 237 266 125 119 113 100 95 95 83 68 70 72 66 66 65 80 89 83 75 76 79 74 67 68 84 88 89
303 301 298 298 297 291 266 251 246 233 240 241 224 221 234 207 212 149 120 109 105 106 104 96 94 88 80 81 76 75 78 82 82 84 87 75 70 71 64 64 62 72 87
307 308 308 307 305 333 359 176 191 194 213 223 203 213 225 194 110 94 92 96 91 102 103 107 97 95 92 87 88 84 81 74 74 77 77 75 71 66 61 57 51 64 74
314 322 328 323 328 341 34 85 127 151 150 123 88 87 87 87 81 67 65 78 63 76 105 103 100 102 92 82 89 93 92 89 86 87 75 66 60 58 56 56 53 51 54
331 335 337 356 2 28 41 61 88 91 92 82 79 86 89 86 86 89 79 65 74 72 74 81 93 81 91 87 86 83 78 70 74 75 74 67 66 64 62 64 65 56 54